Location: Arrien
(43.3167°N, 0.1500°W)
Time: 04:03:11
(UTC+00:00)

Cosmos 1269 Rocket - Pass Details

Date: 15 October 2021
Orbit: 773 x 778 km, 74.1° (Epoch: 08 December)

Event Time Altitude Azimuth Distance (km) Brightness Sun altitude
Rises 19:39:29 0° 337° (NNW) 3,267 7.8 -26.5°
Reaches altitude 10° 19:41:53 10° 334° (NNW) 2,335 7.0 -26.9°
Maximum altitude 19:47:08 66° 253° (WSW) 845 4.3 -27.8°
Enters shadow 19:47:49 59° 212° (SSW) 890 4.3 -28.0°
